Terminal Aerodrome Forecast
Issued by NWS Wilmington, OH

Current Version | Previous Version | Graphics & Text | Print | Product List | Glossary On
Versions: 1 2 3 4 5 6 7 8 9 10 11 12 13 14 15 16 17 18 19 20 21 22 23 24 25 26 27
000
FTUS41 KILN 181455 AAA
TAFCVG
TAF AMD
KCVG 181455Z 1815/1918 20008KT P6SM SCT150 BKN250
     FM181800 23010KT P6SM OVC150
     FM182100 22010KT P6SM OVC050
     FM190000 21005KT P6SM VCSH OVC035
     FM190400 22005KT P6SM OVC025
     FM190800 23004KT 5SM BR OVC015
     FM191300 24006KT P6SM BKN025=

USA.gov is the U.S. government's official web portal to all federal, state and local government web resources and services.